User: anonymous   Login
Location: Arleux
(50.3632°N, 2.8721°E)
Time: 13:11:40
(UTC+00:00)
Language:

Cosmos 1842 - Orbit

View from above orbital plane
View from above orbital plane
View from above satellite
View from above satellite

Ground track
Ground track

The orbit data is extracted from the following two-line orbital elements,

1 17911U 87038A   20056.65486220 +.00000879 +00000-0 +49094-4 0  9995
2 17911 082.5228 311.1152 0013138 096.1173 264.1555 15.12156712790099
Epoch (UTC): 25 February 2020 15:43:00
Eccentricity: 0.0013138
inclination: 82.5228°
perigee height: 520 km
apogee height: 539 km
right ascension of ascending node: 311.1152°
argument of perigee: 96.1173°
revolutions per day: 15.12156712
mean anomaly at epoch: 264.1555°
orbit number at epoch: 79009

The dashed part of the orbit path shows where the satellite is in the earth's shadow,  

DLR